Wetbulb
58.15 58.19 58.74 58.84 58.95 58.93 58.80 58.97 59.26 59.43 59.58 59.69 59.92 59.98 60.43 60.74 60.31 64.37 61.51 67.55 70.03 73.54 75.01 73.06 73.39 73.43 72.49 69.91 70.72 69.27 61.82 58.37 58.56 59.04 60.23 64.74 63.16 66.34 67.05 64.72 65.57 67.03 68.21 70.07 71.86
57.71 58.10 58.35 58.48 58.46 58.35 58.39 58.58 58.63 58.91 58.95 59.12 59.44 59.87 60.19 60.66 61.55 59.43 70.72 74.80 72.90 74.14 71.07 70.84 69.99 71.45 69.02 68.94 66.76 64.25 60.90 60.98 61.02 61.70 62.12 63.95 64.16 65.20 62.89 62.64 65.02 66.57 69.60 70.93 71.62
57.45 57.64 58.00 57.95 58.00 58.06 58.05 58.16 58.29 58.44 58.49 58.94 59.37 59.87 60.28 60.68 60.82 60.11 74.91 74.39 73.18 74.17 69.80 71.20 71.13 67.23 65.74 66.41 63.15 61.61 59.28 60.32 61.31 61.98 62.86 63.13 64.08 66.40 63.67 61.59 66.13 65.75 67.98 69.59 70.99
56.98 56.89 57.22 57.25 57.32 57.46 57.78 57.82 57.86 57.77 58.15 58.62 59.26 59.98 60.38 62.34 54.43 69.13 75.61 74.43 73.64 71.08 70.00 68.99 68.15 63.29 63.21 61.85 62.51 58.64 61.20 61.60 61.35 61.64 61.15 61.53 63.59 63.97 63.97 65.39 67.58 69.12 69.66 69.40 70.13
56.70 56.74 56.44 56.65 56.92 57.20 57.40 57.45 57.45 57.40 57.62 58.45 59.34 60.33 61.51 57.35 59.32 72.09 75.87 74.33 71.60 69.58 70.31 67.41 65.02 62.83 60.65 61.70 60.62 59.54 60.43 61.45 61.92 61.92 61.16 62.58 61.36 62.11 63.21 66.88 67.89 69.79 69.58 69.15 69.85
56.14 56.33 56.38 56.66 56.87 56.70 56.73 56.86 56.84 56.98 57.47 58.33 59.55 60.11 61.60 53.84 67.90 71.34 70.81 70.72 67.50 69.30 69.62 67.41 64.89 63.30 59.96 58.64 58.07 60.07 60.71 60.54 61.16 61.35 62.22 61.26 61.54 62.48 63.71 66.87 67.68 68.34 68.53 69.19 69.51
55.64 55.63 56.03 56.41 56.60 56.23 56.42 56.37 56.34 56.74 57.63 58.81 60.11 62.60 56.96 55.32 62.71 70.78 69.85 67.57 67.29 67.67 65.37 65.89 66.36 62.34 61.25 57.84 61.16 60.10 57.40 59.26 60.07 60.77 61.02 63.22 59.85 59.91 64.28 66.14 67.18 67.30 68.44 69.84 70.78
55.36 55.33 55.53 55.71 55.66 55.75 55.65 55.08 55.83 56.74 58.17 60.04 61.45 62.60 55.10 61.34 63.24 64.32 68.51 68.02 67.67 67.61 65.92 65.64 64.27 60.00 58.05 59.44 58.64 57.22 57.44 53.57 58.47 60.20 62.66 61.57 57.33 62.34 64.97 64.75 66.00 67.40 68.21 69.13 70.43
54.90 55.02 55.04 55.18 55.12 55.13 54.55 54.48 55.76 57.63 59.65 61.41 62.41 59.90 54.60 63.45 58.73 61.07 65.74 65.95 66.60 66.44 65.94 63.84 60.85 57.83 58.30 55.31 53.47 54.99 51.67 53.57 55.88 62.10 61.97 61.52 58.09 62.57 65.03 64.22 65.81 67.29 68.62 68.71 70.07
54.55 54.44 54.52 54.62 54.58 54.19 53.70 54.52 58.80 59.65 60.38 62.51 61.95 56.69 59.54 56.65 59.35 60.20 63.01 64.66 64.38 63.77 62.17 58.87 56.83 54.54 54.68 52.79 47.85 51.13 52.22 54.17 54.47 59.66 60.84 59.63 57.95 61.46 62.91 62.96 63.79 65.37 69.12 69.60 69.47
54.08 54.26 54.13 54.21 53.98 53.51 53.60 57.43 57.11 58.20 57.89 55.44 55.60 54.75 57.14 60.16 61.52 59.48 60.40 60.14 62.73 59.65 55.00 56.87 52.83 50.45 52.38 54.31 54.18 53.49 52.62 52.58 55.69 58.03 57.36 56.71 56.97 58.48 61.00 60.48 60.58 65.20 68.02 69.66 70.07
53.99 53.80 53.78 53.63 53.18 53.03 54.34 55.49 55.66 56.25 50.63 55.82 57.36 57.38 58.68 60.61 55.65 57.34 60.91 55.36 55.62 53.87 55.47 53.74 50.97 54.13 54.87 54.61 53.83 53.29 52.07 52.34 54.77 56.63 56.16 55.24 54.81 58.05 59.32 60.82 60.87 61.16 65.45 68.40 69.67
53.72 53.39 53.14 53.04 52.31 55.67 56.34 53.88 58.83 57.41 50.13 52.00 54.64 54.42 56.49 58.39 55.32 56.24 58.38 56.96 53.98 52.24 53.10 51.83 53.30 55.42 53.97 53.10 51.93 52.38 51.79 52.53 52.29 54.75 55.65 54.46 53.19 56.61 58.79 60.92 61.25 62.01 63.48 67.00 69.24
53.43 53.12 52.68 51.88 53.14 54.39 53.36 58.30 57.93 57.10 46.79 49.36 52.53 54.09 55.33 56.22 54.54 59.18 59.52 57.32 55.10 52.62 53.39 53.10 55.57 53.93 53.12 52.12 52.59 49.35 53.84 53.26 52.14 51.10 47.77 53.80 46.78 56.90 57.88 59.73 60.50 60.77 62.43 62.87 69.35
53.08 52.97 52.50 51.36 51.95 53.15 55.57 56.61 56.73 55.24 38.29 51.42 53.38 59.44 56.50 53.07 54.56 56.29 59.69 56.62 53.29 53.66 54.04 52.36 53.60 53.28 52.24 52.40 53.74 51.22 54.17 52.60 52.28 50.93 50.51 50.77 48.53 52.68 59.19 58.65 58.90 60.85 62.35 63.61 66.68
52.60 52.37 52.00 53.12 54.85 56.47 56.84 56.30 54.79 45.41 39.32 48.96 53.32 52.86 52.32 53.10 53.51 55.82 56.68 57.68 56.88 54.07 54.67 53.98 56.95 55.64 54.78 54.98 54.56 54.68 52.80 52.40 52.21 50.54 46.23 50.38 49.26 50.26 53.70 57.74 58.83 61.48 63.86 64.58 64.99
52.18 51.23 50.42 52.77 50.66 55.07 55.87 53.07 44.01 40.59 50.84 48.41 49.55 51.94 51.43 50.79 51.56 52.54 52.56 53.20 50.74 49.00 49.63 52.32 53.15 55.90 56.40 52.77 54.51 53.21 50.11 44.83 44.73 45.04 44.62 52.09 49.52 52.79 57.17 59.78 60.57 60.51 62.28 63.89 65.58
51.28 50.20 54.14 55.81 57.79 57.54 55.07 47.62 40.10 46.72 47.88 51.65 50.98 50.99 48.96 51.05 50.70 51.36 50.77 50.42 54.08 52.33 49.54 47.96 46.97 53.03 55.80 53.35 51.36 51.62 50.60 45.91 42.73 43.47 46.43 53.53 49.24 52.96 59.41 60.86 60.04 60.20 61.51 64.35 65.35
49.99 54.56 54.26 57.08 59.05 57.58 50.44 42.75 43.73 47.32 50.19 49.68 50.36 48.43 48.47 50.52 50.77 50.24 50.08 49.63 52.21 53.70 50.36 48.52 48.52 54.82 54.95 55.49 54.18 51.11 49.74 52.22 48.28 49.73 46.72 49.36 53.49 57.52 60.06 58.50 58.85 59.58 64.39 65.12 68.22
49.05 52.90 54.92 59.39 59.77 55.12 47.37 42.47 47.39 50.85 50.75 51.60 47.31 49.44 46.87 48.78 48.66 48.97 49.62 51.97 50.99 53.60 55.35 52.33 48.72 52.81 54.40 55.86 55.12 52.79 53.60 48.43 49.62 44.53 43.86 47.47 50.99 52.25 57.86 57.10 63.42 65.37 66.15 68.56 70.03
51.48 50.74 59.38 61.16 59.86 51.67 44.21 45.92 48.63 51.73 51.62 49.86 48.88 48.40 48.88 48.32 49.73 48.84 49.84 51.83 53.35 52.88 53.94 52.38 51.54 50.34 53.39 52.63 51.33 51.40 50.03 50.78 50.49 50.47 45.68 45.16 48.76 59.12 59.13 62.37 65.29 66.58 67.88 69.28 70.69
50.28 47.22 59.06 59.58 50.43 50.02 46.08 48.34 48.07 49.58 51.76 50.74 51.60 50.14 49.00 49.67 49.66 49.50 49.78 52.51 56.02 55.20 50.82 53.13 51.49 49.02 49.56 54.56 55.62 54.02 51.91 51.67 48.15 48.66 50.37 50.34 49.58 58.27 60.91 63.28 65.73 67.02 68.17 70.06 71.38
48.43 49.80 57.31 55.69 46.25 47.97 51.09 49.06 49.71 48.91 49.28 49.48 49.18 51.12 51.64 49.37 47.59 49.73 50.87 54.67 55.82 55.58 55.10 56.27 51.39 47.77 48.52 51.67 54.06 51.72 52.50 52.94 53.67 54.61 50.24 47.96 49.13 60.68 62.57 63.30 67.21 67.48 68.23 70.51 71.93
48.48 48.09 53.09 56.00 53.40 49.82 49.23 49.26 47.74 50.90 48.90 49.58 48.96 50.24 49.61 48.93 50.98 49.00 50.26 53.46 55.45 55.70 61.20 60.22 53.00 51.57 45.49 49.58 51.97 50.74 51.25 52.33 52.22 50.22 50.34 49.15 52.42 59.15 61.04 63.08 64.62 68.28 69.81 70.39 71.42
51.44 49.73 53.05 48.94 53.52 53.46 51.24 49.93 48.83 48.96 52.35 51.70 50.12 49.41 48.27 46.64 48.11 48.24 50.69 51.89 54.10 57.30 56.47 56.81 53.51 52.62 51.74 51.37 51.35 50.36 50.76 51.73 50.65 51.48 49.64 55.66 56.59 56.72 57.69 63.00 65.41 68.54 68.69 69.07 70.45
49.35 49.30 52.55 50.56 53.89 53.33 50.37 50.65 49.93 51.31 51.48 49.82 50.09 51.23 50.64 48.88 48.79 47.99 50.52 51.82 51.60 53.96 54.74 56.23 53.40 53.19 50.43 51.50 51.26 49.73 51.37 51.69 51.95 51.80 51.20 53.37 56.19 59.93 61.53 65.65 65.06 66.26 68.27 68.65 69.59
52.77 52.65 49.34 48.40 51.33 51.57 51.60 50.98 52.46 52.90 53.41 52.69 52.25 51.24 50.11 51.44 53.33 53.45 53.13 54.14 54.70 55.72 54.06 52.36 53.70 53.45 49.19 51.49 52.02 48.25 51.19 51.85 52.29 55.47 54.87 51.68 56.87 63.14 63.28 64.52 65.14 66.02 65.99 67.70 68.96
MSLP
1018.21 1017.75 1017.27 1016.75 1016.22 1015.73 1015.24 1014.63 1014.13 1013.59 1013.08 1012.60 1012.04 1011.66 1011.28 1010.71 1009.64 1008.87 1006.79 1005.00 1005.22 1005.74 1006.21 1005.64 1005.36 1004.05 1003.11 1002.54 1001.77 1000.48 1000.36 999.49 997.89 997.83 999.48 998.52 1000.09 1000.12 1001.58 1002.23 1001.78 1001.94 1001.92 1003.62 1005.16
1018.47 1017.96 1017.47 1016.87 1016.28 1015.68 1015.12 1014.64 1014.04 1013.32 1012.72 1012.26 1011.86 1011.28 1010.95 1010.83 1009.23 1006.65 1004.66 1004.65 1004.98 1005.54 1005.51 1004.53 1003.89 1003.20 1002.37 1001.13 1000.13 999.76 999.64 998.43 997.53 997.62 998.32 998.47 998.67 999.92 1004.31 1003.71 1002.05 1002.40 1003.10 1004.18 1005.10
1018.63 1018.16 1017.62 1016.99 1016.30 1015.71 1015.07 1014.41 1013.91 1013.38 1012.78 1012.12 1011.60 1011.23 1010.99 1010.86 1008.13 1004.22 1004.67 1004.72 1004.90 1005.20 1004.35 1003.66 1002.88 1002.40 1001.75 1000.33 999.11 998.75 998.76 997.57 997.13 997.58 997.58 998.19 998.30 999.17 1000.88 1001.78 1001.15 1001.84 1003.17 1004.13 1004.85
1018.69 1018.24 1017.69 1017.10 1016.38 1015.73 1015.09 1014.39 1013.70 1013.14 1012.69 1012.21 1011.63 1011.09 1010.64 1009.80 1006.21 1004.33 1004.64 1004.92 1005.10 1004.77 1004.27 1003.18 1002.64 1002.04 1001.13 999.70 998.39 998.26 997.88 997.40 997.05 997.00 997.31 997.25 997.38 997.73 998.59 999.25 999.54 1000.86 1002.28 1003.48 1004.31
1018.89 1018.43 1017.88 1017.27 1016.49 1015.77 1015.02 1014.28 1013.58 1012.78 1012.27 1012.01 1011.62 1011.21 1009.48 1007.55 1004.56 1004.51 1005.11 1005.23 1005.53 1005.18 1003.94 1002.77 1002.15 1001.40 1000.65 999.58 998.85 998.09 997.66 997.21 996.84 996.63 996.64 997.24 997.33 997.26 997.77 998.19 999.30 1000.52 1001.83 1002.93 1003.67
1018.95 1018.32 1017.67 1017.05 1016.53 1015.86 1015.01 1014.23 1013.41 1012.62 1011.87 1011.54 1011.44 1011.29 1009.67 1006.02 1003.24 1004.17 1004.47 1004.90 1004.43 1004.35 1003.45 1002.57 1001.82 1001.23 1000.70 1000.22 999.64 998.72 998.09 997.72 997.25 996.61 996.20 996.53 996.81 996.74 997.28 997.68 998.84 1000.05 1001.27 1002.26 1002.97
1019.17 1018.48 1017.75 1017.08 1016.31 1015.51 1014.72 1013.80 1013.13 1012.38 1011.66 1011.19 1011.29 1010.63 1007.96 1004.57 1002.56 1003.35 1003.88 1003.93 1003.75 1003.43 1002.61 1002.00 1001.71 1001.42 1000.99 1000.33 999.46 998.94 998.32 997.67 996.77 996.03 995.78 996.25 996.48 996.59 997.40 997.51 998.35 999.62 1000.70 1001.51 1002.20
1019.09 1018.37 1017.60 1016.86 1016.12 1015.23 1014.19 1013.11 1012.36 1011.77 1011.09 1010.70 1010.85 1010.06 1005.84 1002.73 1002.16 1002.17 1003.03 1003.22 1003.29 1002.59 1002.24 1001.71 1001.36 1001.31 1001.21 1000.72 1000.08 999.38 998.52 997.41 995.88 995.20 995.67 996.25 996.31 997.18 997.05 997.18 997.66 998.73 999.97 1000.81 1001.53
1019.17 1018.28 1017.40 1016.57 1015.72 1014.90 1013.84 1012.32 1010.92 1010.63 1010.39 1010.32 1010.00 1008.28 1003.90 1002.20 1001.92 1001.67 1002.03 1002.23 1002.38 1002.23 1001.89 1001.77 1001.53 1001.56 1001.09 1000.64 1000.09 999.25 998.22 996.87 995.64 995.18 995.75 995.87 995.73 996.11 996.06 996.43 996.88 997.49 998.59 999.77 1000.84
1019.21 1018.53 1017.64 1016.42 1015.54 1014.58 1013.44 1011.06 1008.98 1009.54 1009.59 1008.93 1008.01 1006.56 1003.20 1001.23 1000.77 1000.92 1001.08 1001.52 1001.43 1001.47 1001.47 1001.46 1001.41 1001.21 1000.77 1000.20 999.23 998.22 997.27 996.29 995.38 995.40 995.54 995.59 995.13 995.11 996.25 995.59 995.65 996.22 997.62 998.61 999.63
1019.15 1018.60 1017.42 1016.29 1015.29 1014.41 1013.57 1009.88 1008.33 1008.48 1007.38 1005.57 1003.79 1002.67 1000.90 999.80 999.97 999.70 1000.29 1000.81 1001.02 1000.89 1000.85 1000.75 1000.63 1000.04 999.72 999.09 998.62 998.06 997.29 996.28 995.47 995.13 995.09 994.98 995.13 995.22 994.96 994.59 994.43 995.12 995.88 997.46 998.48
1019.14 1018.46 1017.18 1016.02 1014.96 1014.22 1013.68 1010.16 1007.66 1007.65 1005.81 1004.47 1003.22 1002.07 1000.95 999.54 999.06 999.56 999.73 1000.20 1000.50 1000.27 1000.26 1000.26 999.39 999.34 998.93 998.33 997.80 997.39 996.97 996.58 996.16 995.90 995.73 995.53 995.19 994.69 994.56 994.08 994.15 994.24 994.87 995.72 997.18
1019.12 1018.33 1017.17 1016.03 1014.35 1012.99 1010.91 1008.98 1007.83 1007.58 1005.90 1003.38 1002.12 1000.96 1000.22 999.73 998.74 998.40 998.85 999.17 999.49 999.77 999.53 999.11 998.60 998.28 998.02 997.74 997.60 997.08 997.06 996.77 996.46 996.06 995.65 995.51 995.08 994.70 994.40 993.97 993.69 993.50 993.97 994.78 995.76
1019.11 1018.32 1017.45 1016.64 1013.77 1011.94 1009.78 1008.38 1008.07 1007.46 1005.26 1001.46 999.64 998.75 999.23 998.87 998.14 998.24 997.89 998.25 998.76 998.61 998.74 998.32 997.80 997.39 996.97 996.76 996.88 996.73 997.01 996.82 996.58 996.36 995.90 995.61 994.81 994.13 993.67 993.44 993.03 993.12 993.63 994.40 995.24
1018.80 1018.28 1017.79 1017.73 1015.29 1012.07 1009.57 1009.03 1008.47 1007.62 1004.09 999.09 996.36 995.61 996.80 997.49 997.53 997.07 997.70 997.62 997.49 997.65 998.12 997.23 996.87 996.57 996.23 996.41 996.61 996.67 996.99 996.83 996.59 996.34 996.05 995.65 995.15 994.17 993.79 993.42 992.89 993.25 993.72 994.87 995.41
1018.49 1018.04 1017.78 1014.74 1014.42 1011.79 1010.16 1009.09 1008.60 1006.92 1002.47 998.72 996.15 994.49 995.66 996.10 996.25 996.58 996.46 997.09 996.91 997.21 997.16 996.73 996.53 996.10 995.64 995.87 996.11 996.56 996.93 996.97 996.97 996.66 995.97 995.57 995.02 993.89 993.10 993.61 993.97 993.95 994.21 995.12 995.42
1018.00 1017.18 1017.45 1016.21 1012.27 1010.79 1010.43 1009.34 1007.64 1005.03 1001.37 998.55 996.68 995.42 995.38 995.69 995.55 995.76 995.89 995.70 996.20 996.57 996.31 996.33 995.95 995.68 995.51 995.29 995.67 996.30 996.70 996.85 996.80 996.23 995.47 994.69 994.05 993.33 992.71 993.07 993.49 993.96 994.14 994.89 995.50
1017.38 1015.91 1014.04 1013.14 1011.62 1011.10 1010.24 1009.11 1006.62 1003.52 1001.63 999.07 997.32 996.03 995.31 995.28 995.41 995.09 995.38 995.26 995.05 995.59 995.54 995.54 995.43 995.27 995.11 995.07 995.65 995.62 995.91 996.07 995.84 995.39 994.39 993.74 993.21 992.32 992.07 992.32 993.72 993.67 993.91 994.98 995.61
1016.99 1013.22 1011.08 1010.13 1010.94 1010.78 1010.05 1007.80 1005.24 1003.33 1001.40 1000.05 998.20 996.60 995.76 995.17 994.95 994.86 994.73 994.70 994.44 994.81 994.95 994.92 994.45 994.28 994.19 994.42 995.11 995.42 995.17 995.61 995.63 995.34 994.73 993.73 992.76 992.51 992.40 992.42 992.84 993.40 994.55 995.25 996.15
1016.91 1013.03 1010.00 1009.15 1010.09 1010.13 1009.23 1006.86 1004.83 1002.93 1001.63 1000.71 999.20 997.92 997.07 996.30 995.69 995.06 994.57 994.13 994.09 994.09 994.39 994.52 994.42 993.79 993.26 993.48 993.89 994.46 995.10 995.17 995.27 995.29 994.83 994.03 993.26 993.17 992.58 992.73 993.60 994.55 995.43 996.26 997.15
1016.26 1011.52 1009.10 1009.00 1009.59 1009.19 1007.53 1005.64 1004.32 1002.95 1002.08 1001.08 1000.15 999.34 998.30 997.68 996.69 996.08 995.28 994.71 993.88 993.40 993.72 993.76 994.13 993.69 993.03 992.60 992.80 993.67 994.24 994.65 994.64 994.68 994.56 994.42 994.29 993.30 994.10 994.46 994.81 995.59 996.30 996.92 997.75
1014.46 1010.50 1008.93 1008.99 1008.82 1007.58 1006.48 1005.16 1004.15 1002.73 1001.58 1000.96 1000.81 1000.53 999.75 998.84 997.89 996.81 996.14 995.95 994.83 993.15 992.94 993.29 993.41 993.30 992.76 992.49 992.76 992.96 993.33 994.09 994.39 994.77 994.76 994.71 994.95 994.91 995.08 995.03 994.83 996.10 996.88 997.34 998.00
1014.46 1010.26 1008.19 1008.61 1007.37 1005.86 1004.72 1003.88 1003.26 1002.55 1002.08 1001.66 1001.18 1000.81 1000.22 999.69 998.97 997.91 996.81 996.56 995.45 994.42 994.45 994.19 993.09 993.24 993.08 993.06 992.59 992.75 993.11 993.26 993.93 994.72 994.65 995.13 996.17 996.28 996.15 996.02 996.01 996.74 997.42 997.66 998.20
1014.82 1009.69 1007.80 1008.06 1007.33 1006.46 1005.14 1003.75 1003.11 1002.70 1002.67 1002.50 1001.99 1001.40 1000.54 999.85 999.13 998.40 997.56 996.28 995.83 995.37 995.47 995.03 994.26 993.80 993.18 992.92 993.22 992.82 992.85 993.03 993.32 993.81 994.53 995.09 995.79 997.39 997.54 997.47 997.37 997.51 997.84 998.25 998.68
1014.41 1009.77 1008.40 1007.97 1006.39 1005.79 1005.06 1004.45 1003.66 1003.14 1002.40 1002.26 1001.96 1001.51 1001.16 1000.38 999.50 998.63 997.71 996.71 996.40 996.22 995.89 995.62 995.42 994.94 994.07 993.37 992.95 992.93 993.62 993.21 993.35 993.72 994.39 995.62 997.44 999.67 1000.87 999.77 999.02 998.55 999.06 999.07 999.19
1014.10 1011.69 1010.14 1008.99 1007.70 1006.50 1005.40 1004.70 1003.96 1003.07 1002.97 1002.74 1002.17 1001.61 1000.95 1000.18 1000.01 999.09 998.01 997.15 996.61 997.20 997.63 997.70 996.65 996.12 995.06 994.06 993.69 993.50 993.79 993.92 994.18 993.60 994.24 995.52 997.28 999.61 1000.51 999.92 999.82 999.90 999.60 999.38 999.70
1014.07 1013.17 1012.23 1009.64 1007.72 1006.20 1005.50 1006.17 1005.00 1004.01 1003.25 1002.97 1002.80 1002.22 1000.99 999.99 999.30 998.58 998.35 997.63 997.15 997.68 999.12 1000.10 999.08 997.31 995.94 995.22 994.69 994.40 994.47 993.76 993.87 993.75 993.98 995.35 998.55 999.72 1000.69 1001.30 1000.70 1001.47 1000.51 999.88 1000.09
Wind_Speed
20 20 20 20 19 19 19 19 19 19 18 19 19 17 15 16 19 7 11 6 7 18 7 10 14 14 15 15 17 14 7 10 13 11 11 6 6 12 13 4 9 6 12 19 18
20 20 19 20 20 20 20 20 20 20 20 19 19 19 17 15 10 16 6 12 18 15 11 13 12 13 11 18 11 8 10 20 7 7 13 19 2 13 20 21 9 11 18 19 19
20 19 20 21 21 21 21 21 21 20 20 20 20 19 17 15 12 6 6 13 17 17 15 13 14 12 14 19 15 12 8 8 6 8 10 18 10 17 26 15 13 16 18 19 17
20 21 21 22 22 22 22 21 22 21 19 20 19 20 19 7 8 7 11 12 15 17 17 13 16 15 16 20 14 7 13 10 11 3 5 7 4 6 2 9 12 21 21 20 19
21 22 22 22 23 23 23 22 22 23 21 18 17 17 13 10 17 9 8 10 13 14 16 15 15 17 15 18 19 11 13 11 10 14 3 4 12 4 4 9 10 21 20 20 18
21 22 22 23 23 23 23 22 22 23 22 19 15 14 8 17 4 12 13 15 14 15 17 16 14 16 14 17 17 20 18 15 17 17 11 7 10 8 10 8 13 18 17 18 18
21 21 22 23 25 26 25 24 22 22 22 19 13 7 12 19 10 11 13 14 17 17 17 17 15 17 17 20 18 16 18 16 20 17 11 2 12 0 8 9 13 16 15 17 16
21 22 23 23 24 25 27 28 25 22 21 18 6 10 10 17 12 15 15 15 17 15 16 15 14 13 18 18 21 20 19 16 21 15 6 6 6 3 15 13 14 17 15 15 16
21 23 24 25 26 26 28 31 31 21 14 9 7 10 19 2 16 17 17 18 18 18 17 12 13 14 16 17 17 17 17 20 20 11 8 10 5 10 17 16 15 15 16 16 15
20 21 24 25 27 27 31 32 19 6 9 10 12 11 19 19 18 17 18 19 18 17 16 17 14 14 15 15 15 19 19 21 16 9 11 16 12 4 13 13 16 16 17 16 17
21 22 24 26 28 26 19 12 7 7 10 15 14 17 20 18 17 20 20 18 20 18 18 18 15 16 21 21 21 18 20 21 18 16 15 10 12 12 14 12 13 15 18 17 18
21 23 24 28 29 28 11 10 12 10 14 18 22 27 28 24 15 17 16 22 21 21 20 19 20 21 21 21 20 18 19 17 19 15 16 15 19 11 18 15 9 12 16 21 20
20 22 24 29 31 14 12 17 11 14 12 24 24 22 25 27 18 19 24 21 18 23 22 22 21 22 23 17 18 18 15 17 16 17 16 16 19 11 17 16 17 11 7 17 18
21 21 24 28 12 14 13 10 11 13 11 23 25 33 28 29 29 22 22 24 23 25 25 22 23 24 21 21 16 20 15 19 18 15 12 14 14 14 17 14 15 7 8 7 17
21 20 21 11 13 8 16 15 14 10 9 13 22 31 30 33 28 26 26 25 26 26 22 23 22 20 20 18 18 16 15 18 16 15 16 16 11 14 5 16 9 9 12 2 3
22 21 19 13 10 16 17 14 10 8 15 13 24 14 27 28 28 29 24 28 23 26 25 26 23 21 18 17 20 13 16 18 13 15 13 16 16 14 15 7 11 10 6 9 6
25 26 15 11 9 15 12 9 8 11 11 22 23 8 16 18 26 28 29 27 25 23 23 26 27 23 20 14 13 16 17 12 13 12 13 19 17 12 9 15 13 12 10 6 5
26 32 9 10 9 13 9 9 13 11 21 24 25 16 21 21 22 24 26 26 28 28 20 21 22 25 24 17 14 19 18 13 15 14 15 15 13 12 18 12 17 7 6 6 4
31 10 10 12 13 5 7 12 13 15 24 17 25 17 13 15 12 23 27 26 29 24 23 21 26 22 25 21 18 19 16 16 18 19 15 13 6 7 9 6 7 8 14 11 11
11 11 11 11 5 6 8 14 20 20 24 18 17 12 15 15 20 17 17 22 27 27 25 23 23 26 23 23 24 21 15 14 12 16 16 15 13 6 15 10 17 15 14 11 10
7 7 7 5 5 6 10 14 18 21 21 13 15 19 21 23 14 11 11 17 20 26 25 24 19 21 23 19 20 16 17 18 18 12 13 13 3 9 11 10 14 14 13 12 12
7 7 6 5 7 7 11 19 17 21 19 13 14 16 20 20 14 10 21 15 30 18 25 25 18 15 24 14 24 17 17 20 13 13 14 13 7 11 3 5 16 14 14 13 13
7 10 7 6 8 9 13 17 16 15 13 15 16 19 17 17 17 18 19 2 19 18 12 11 13 12 19 18 13 17 21 17 17 13 17 14 3 8 7 8 9 14 13 12 14
7 6 5 7 12 13 15 15 9 11 13 14 17 19 18 18 16 17 19 18 2 14 11 7 9 10 13 16 13 14 21 20 16 9 14 16 12 6 4 9 1 12 12 12 11
7 5 12 6 6 12 12 11 12 11 13 8 11 14 16 17 17 19 20 18 15 3 7 5 9 13 16 21 20 17 14 20 18 19 16 8 10 17 17 17 8 7 10 11 11
7 11 13 14 15 15 13 11 15 12 8 12 12 15 15 15 17 19 19 18 13 5 15 19 10 11 17 17 18 16 17 18 21 22 20 16 14 22 15 10 8 1 8 11 10
10 10 9 11 14 13 3 7 18 14 11 7 14 15 20 15 17 15 19 20 17 4 4 10 13 8 15 18 18 14 18 22 11 8 11 16 15 13 14 10 12 6 5 7 7
Wind_Direction
359 356 352 349 347 346 342 338 335 333 332 328 327 328 331 326 306 237 256 268 177 174 221 182 227 248 262 266 263 265 290 245 27 62 72 225 171 98 71 116 89 54 105 134 142
357 352 349 346 343 341 337 335 332 331 329 327 327 327 330 331 291 269 222 141 140 163 195 200 217 235 255 262 254 222 291 276 70 9 165 32 56 75 119 306 128 100 107 129 152
354 350 346 343 341 337 333 331 328 326 325 324 324 322 323 317 278 229 136 146 159 178 222 216 257 278 268 270 270 267 257 351 37 48 341 163 199 139 147 210 200 147 140 153 161
351 348 344 340 336 332 329 326 323 320 321 318 320 319 313 250 301 88 154 166 179 192 240 227 252 264 258 274 272 269 285 324 297 113 277 287 340 193 109 143 131 144 153 165 171
347 344 340 336 332 328 326 322 318 315 314 314 317 321 321 262 261 131 147 159 183 217 229 232 249 261 266 283 314 297 270 299 313 302 172 286 287 268 278 140 129 138 156 173 178
345 340 337 333 329 325 321 317 313 310 308 309 314 314 255 272 126 135 172 162 190 207 234 240 253 277 291 299 290 298 307 310 293 277 257 226 276 219 220 167 136 145 168 177 184
341 337 333 329 326 323 319 312 308 303 299 300 304 275 266 255 293 153 182 196 208 213 239 234 254 274 283 280 279 282 288 277 268 258 241 178 263 349 313 167 153 163 175 181 185
338 335 331 327 323 320 316 311 303 296 292 288 271 254 256 264 250 191 206 206 218 231 246 267 279 277 268 279 285 285 280 272 268 246 238 221 179 155 228 216 179 171 178 190 190
335 333 329 326 323 320 313 307 296 285 257 266 246 221 260 131 217 239 201 218 215 227 246 248 260 265 266 256 261 252 260 263 264 177 227 232 230 206 229 214 175 183 180 186 188
334 331 325 324 320 320 316 295 281 290 205 225 254 274 259 242 226 221 214 221 228 222 234 241 237 245 245 247 251 251 243 242 248 170 202 251 254 273 302 203 205 195 179 182 184
333 328 327 322 317 318 328 319 231 195 221 245 221 217 273 277 227 203 203 213 231 229 228 235 236 240 242 244 240 260 274 289 296 307 321 314 288 286 281 271 273 172 176 181 189
332 328 327 322 315 310 284 282 344 326 301 273 262 267 273 270 209 219 218 201 214 227 230 239 239 242 254 258 265 259 266 269 275 289 290 287 282 284 277 284 293 264 181 180 184
327 328 328 323 315 290 286 293 337 305 283 279 265 252 252 251 229 236 209 208 216 221 231 241 243 239 243 248 261 260 268 282 279 280 283 288 277 263 262 268 245 241 229 184 175
324 327 327 327 289 327 287 15 310 319 280 274 248 233 239 246 236 234 246 204 218 228 224 241 246 248 260 241 237 253 249 253 260 268 268 270 275 259 252 258 240 248 116 271 165
323 324 321 313 303 290 325 330 314 283 276 280 242 223 212 225 234 218 227 241 224 228 239 250 248 250 251 242 253 265 266 272 285 278 273 267 261 273 182 243 205 126 116 80 93
316 315 327 301 222 262 276 310 293 239 247 259 272 206 207 215 224 232 220 220 241 230 245 246 248 257 261 246 253 243 267 269 261 265 263 259 257 266 265 121 354 50 78 127 140
312 307 297 290 263 350 324 289 234 241 281 249 271 234 207 233 224 223 231 215 215 232 231 240 250 253 255 264 236 240 238 244 245 242 248 245 240 240 264 153 211 163 119 125 101
313 305 246 232 239 265 274 253 250 264 244 278 293 276 236 227 230 231 221 235 230 217 237 232 238 238 249 226 247 250 232 237 239 244 247 231 243 234 232 171 154 232 143 105 133
310 290 251 219 211 243 258 234 241 253 276 326 315 281 276 299 281 225 226 230 239 217 239 242 250 251 230 225 213 244 255 244 259 275 277 281 261 352 346 150 195 142 104 101 96
314 292 251 105 171 222 240 257 276 271 279 306 292 310 293 276 268 265 275 232 231 237 227 232 252 253 235 217 220 222 245 235 233 247 272 283 283 343 186 197 109 98 103 102 116
263 271 112 168 188 228 245 253 259 258 271 303 295 297 306 313 340 302 305 259 250 231 234 244 232 246 256 237 223 203 221 250 264 244 242 245 62 92 60 74 101 117 124 137 132
283 275 123 170 230 228 250 259 259 287 300 289 256 274 290 309 301 309 273 27 316 317 219 230 225 227 253 236 218 222 223 216 244 257 268 284 331 35 159 146 126 127 145 143 145
283 294 159 226 261 242 275 239 265 276 288 285 286 278 275 287 292 297 302 327 258 312 22 334 239 221 241 247 235 207 240 235 217 233 264 282 137 172 112 71 115 142 149 147 146
277 278 168 207 262 280 288 317 289 253 249 273 279 296 299 289 279 285 283 307 328 296 339 304 289 287 246 238 212 225 221 232 244 240 231 245 241 43 65 125 72 148 147 147 139
247 278 355 286 314 311 276 298 309 287 301 267 267 266 260 277 282 275 282 286 272 182 289 327 298 291 284 254 271 280 233 262 243 254 250 121 108 94 73 341 348 145 157 149 145
291 336 338 301 292 282 281 276 269 283 242 283 315 295 276 255 249 272 275 280 296 339 311 330 251 265 279 275 259 260 253 248 256 240 244 221 134 145 155 127 83 62 155 153 157
342 341 302 289 290 284 331 303 294 306 294 257 281 310 284 261 276 250 253 273 282 135 58 4 317 257 251 251 264 259 242 261 254 320 265 218 103 66 80 59 56 14 52 110 153